Wind_Gust
12 12 12 11 11 11 11 11 12 12 12 12 13 13 13 13 13 13 13 14 15 15 16 17 17 18 19 19 19 19 18 27 25 21 19 16 13 9 7 6 7 11 11 19 19 22 21 21 21 18 21 19 20 23 16 18 16 18 22 21 22 19 21 13 16 14 17 14 15 11 12 12 15 14 13 15 16 11 12 12 12 14 13 14 24 28 29 29
12 12 11 12 12 12 12 11 11 12 12 12 13 14 14 14 15 15 15 15 15 16 17 17 17 18 19 19 19 18 22 25 26 23 24 16 12 7 5 4 9 15 15 22 24 24 22 22 20 20 21 22 15 19 17 21 19 23 21 23 22 22 20 16 17 13 14 17 12 13 10 12 14 13 15 22 14 17 14 14 16 18 15 24 25 29 29 28
12 11 11 11 12 12 12 12 11 12 12 12 13 14 14 15 15 15 15 15 16 16 16 17 17 19 20 19 19 14 23 27 24 26 16 14 14 9 8 5 12 15 25 21 22 22 20 19 19 22 21 20 19 18 18 19 20 22 23 22 24 21 13 16 10 15 13 14 13 13 12 13 12 14 12 19 12 15 18 16 15 19 19 22 25 28 27 26
12 12 12 12 12 12 12 12 13 12 12 12 13 13 14 15 15 16 15 15 15 15 16 17 18 19 20 20 18 23 23 24 27 20 22 13 12 11 11 10 14 19 24 21 19 22 17 15 18 22 19 23 19 18 21 21 23 19 26 25 18 21 18 12 10 8 11 13 15 14 14 18 11 14 15 12 22 21 21 26 21 18 21 22 24 25 25 26
12 12 13 13 13 13 13 13 14 14 13 13 13 13 14 15 16 16 16 16 16 16 16 17 18 19 20 21 18 23 20 24 21 21 18 10 12 15 14 11 14 23 23 17 18 20 16 18 20 21 22 23 17 18 22 19 22 17 22 22 23 13 18 10 10 13 13 12 17 14 17 16 15 18 17 14 20 14 19 16 18 15 21 24 25 25 25 25
12 12 13 13 13 14 14 14 14 13 14 13 13 14 14 15 16 17 17 16 16 16 16 17 18 19 21 20 26 22 20 13 17 16 6 8 10 15 14 12 16 21 21 18 20 17 19 19 21 23 23 22 18 22 20 21 19 26 20 21 20 17 20 13 11 11 11 17 16 15 15 14 16 16 15 12 16 13 10 11 10 16 23 25 24 25 24 24
12 13 13 14 14 14 15 15 15 15 14 14 14 14 15 15 16 17 17 17 16 17 16 16 18 21 20 21 30 21 25 33 14 16 13 10 13 17 14 14 16 20 20 19 20 22 21 19 22 20 19 20 17 24 17 20 19 25 27 15 19 18 19 15 17 12 16 16 17 16 15 18 15 21 10 15 12 9 10 12 14 17 26 24 24 23 23 25
13 13 14 14 14 15 15 16 16 15 15 15 15 15 15 15 16 17 17 17 17 17 16 16 18 20 18 26 21 23 26 21 19 16 15 16 19 19 17 21 23 20 20 21 19 20 19 21 23 18 22 21 17 23 14 19 21 26 29 19 14 14 16 17 16 17 16 16 17 17 19 18 16 21 14 17 16 10 10 13 16 19 18 25 23 22 21 21
14 14 14 15 15 15 16 16 17 16 16 15 15 15 16 16 17 17 17 17 17 16 16 16 17 18 16 22 22 24 17 19 15 19 22 21 22 22 24 25 24 20 20 19 17 17 17 20 21 19 17 21 13 19 17 19 27 27 22 19 17 16 15 16 17 16 16 18 16 18 20 17 19 14 21 19 17 9 10 15 18 19 20 20 22 20 21 20
15 15 15 15 16 15 16 17 17 17 17 16 16 16 16 17 17 18 18 18 17 17 16 15 16 17 22 20 22 26 16 10 16 18 17 20 22 23 25 19 23 19 19 18 16 17 21 14 20 13 17 21 11 19 16 22 20 13 17 21 22 19 18 16 18 17 16 18 14 20 19 19 15 15 25 24 12 12 14 16 19 19 21 22 25 20 18 20
15 16 16 16 16 16 17 18 18 18 18 18 17 17 18 18 19 19 20 19 19 17 16 15 15 16 21 18 22 19 11 11 11 16 16 19 23 25 23 20 20 20 16 14 15 16 16 14 12 11 15 24 14 19 20 22 21 15 15 15 18 20 21 19 18 17 18 23 21 21 22 20 17 19 27 19 14 12 15 17 19 20 22 22 21 20 18 19
16 16 16 16 16 17 17 18 18 18 19 19 18 18 19 19 20 21 22 21 21 18 16 14 13 21 21 23 23 19 14 12 12 14 17 20 23 24 17 18 19 15 15 15 15 14 11 12 13 20 19 11 22 11 22 19 19 17 16 23 21 23 30 23 24 20 19 21 14 13 20 21 22 25 27 16 16 15 16 17 19 23 22 20 22 22 21 21
15 16 16 16 17 17 18 18 19 20 20 20 19 19 19 20 22 23 22 20 16 16 15 13 13 19 18 23 24 14 10 14 13 12 17 20 20 15 17 16 16 12 10 12 12 13 10 12 15 20 18 20 14 19 17 16 16 17 19 21 22 23 27 24 22 18 16 18 8 10 26 25 30 28 31 18 17 17 19 18 21 21 29 25 21 22 21 21
15 16 16 17 17 18 18 19 20 20 20 20 20 19 20 22 23 21 19 18 16 13 11 11 19 18 18 23 12 12 11 12 13 17 19 20 19 18 15 15 13 13 9 11 8 8 11 14 15 20 14 20 15 16 21 16 16 24 19 22 24 22 30 26 23 17 20 18 15 17 25 25 25 31 29 19 17 20 21 20 20 23 28 28 24 22 21 21
15 16 16 17 17 18 18 20 20 20 20 20 21 20 21 22 21 20 16 15 13 9 10 10 19 15 19 21 16 13 11 8 17 19 19 22 21 20 18 16 15 14 14 11 12 11 11 12 16 19 21 19 17 15 22 24 21 22 24 25 23 25 21 24 18 16 23 24 18 20 24 26 16 23 23 16 19 20 22 21 21 21 25 32 27 23 22 21
14 15 16 16 17 18 19 19 20 20 21 22 22 21 21 19 17 16 13 11 8 10 19 17 18 20 21 27 15 14 16 20 22 21 20 19 21 19 19 17 15 15 13 14 10 12 13 14 22 19 19 17 21 22 20 24 25 24 24 17 24 23 22 19 22 17 17 10 17 20 25 19 27 25 18 17 19 20 23 23 22 22 20 21 24 24 21 22
15 15 16 16 16 18 19 20 20 20 21 22 23 21 19 15 12 11 9 9 15 18 19 16 15 18 16 19 15 18 19 21 14 24 21 21 19 17 18 18 19 18 16 13 14 13 16 20 17 19 20 21 20 24 23 23 22 25 24 24 23 20 20 19 23 17 15 16 20 22 26 23 16 20 17 16 19 23 24 25 25 24 21 21 21 23 23 22
15 16 17 17 17 17 19 20 20 21 21 21 21 23 26 11 11 11 13 15 18 19 18 17 17 16 35 24 18 18 19 18 19 20 20 22 20 19 18 23 17 18 18 18 16 20 19 24 23 21 20 22 23 25 27 24 26 24 22 23 23 20 16 21 18 24 15 18 19 13 20 20 24 15 19 17 19 23 26 26 27 24 22 22 23 23 25 23
15 16 17 17 17 18 19 19 20 20 20 21 27 25 19 13 20 21 20 19 19 15 19 23 20 22 18 22 12 14 16 18 15 19 20 20 23 21 20 18 18 21 22 21 22 22 23 22 20 22 25 26 27 27 27 26 18 22 20 24 24 26 25 30 23 22 15 16 18 20 23 23 23 25 23 19 20 22 24 24 26 24 26 24 24 23 27 24
15 16 17 17 17 18 19 19 20 21 17 22 24 17 18 17 19 16 21 19 26 22 23 15 26 20 12 15 17 15 17 16 19 19 18 18 24 23 24 22 22 23 22 23 23 22 20 24 25 25 25 24 23 25 25 28 19 15 21 16 22 24 23 18 11 13 10 18 20 19 20 22 22 20 20 20 21 21 23 25 26 25 26 27 26 25 22 21
16 16 17 18 18 18 18 18 18 17 15 26 23 20 17 19 19 14 13 20 25 25 23 19 19 19 19 13 12 17 22 22 21 20 19 20 20 24 28 25 26 26 25 21 19 17 20 24 24 22 22 20 19 21 21 26 12 19 22 20 25 24 25 25 19 14 14 15 19 18 21 20 20 20 22 24 21 22 24 26 25 27 29 29 32 30 23 22
16 17 17 18 19 19 20 19 18 17 20 23 19 20 17 15 17 14 19 22 15 19 21 21 16 20 17 17 10 11 12 22 23 19 21 22 24 28 26 27 26 27 23 24 19 19 23 26 23 21 21 18 13 13 16 17 17 18 23 23 25 26 24 19 14 14 13 17 23 23 23 22 21 21 23 26 26 21 22 24 25 27 27 28 30 30 22 20
16 17 18 18 19 20 20 21 18 18 24 18 19 19 14 13 11 13 15 23 30 26 23 20 19 20 21 17 20 15 21 25 26 26 29 25 25 29 25 29 26 25 25 25 24 21 23 25 25 22 20 13 15 14 14 16 17 20 23 26 27 24 29 31 14 13 14 20 20 15 21 23 20 22 25 25 28 24 25 26 26 26 28 29 28 25 29 24
16 17 17 18 19 19 21 19 21 19 20 18 17 17 14 12 13 14 18 20 18 15 17 15 18 17 19 19 26 23 24 27 24 25 26 29 27 22 26 25 25 28 28 26 24 25 24 16 16 24 18 17 18 17 18 19 22 22 24 25 26 24 31 27 17 16 13 17 18 23 27 31 26 28 31 27 27 27 25 26 27 27 27 27 27 27 31 32
16 16 17 18 19 21 20 23 18 14 10 14 19 13 9 11 13 14 18 20 25 19 14 14 13 15 14 13 14 27 23 25 24 22 31 28 27 26 25 24 28 28 25 24 24 28 27 19 11 10 16 19 20 22 22 20 24 22 22 24 25 22 26 24 16 22 25 27 27 25 33 33 26 29 33 30 32 31 27 26 26 26 26 26 28 27 26 30
16 16 17 17 19 20 24 20 12 11 13 16 14 14 9 12 11 14 17 19 18 29 22 23 21 20 17 20 16 22 16 31 22 25 25 28 25 26 24 28 29 26 26 23 28 29 25 21 19 20 18 19 21 23 19 21 23 22 22 24 27 28 24 23 24 25 26 27 20 17 26 30 22 25 22 25 25 24 23 24 25 25 25 25 26 27 28 28
16 17 16 17 17 20 21 11 18 16 17 16 12 9 11 13 10 11 19 18 20 33 22 26 22 20 17 16 20 18 21 27 24 21 20 26 29 22 25 24 27 25 22 24 27 31 23 19 17 16 19 21 22 25 22 21 25 27 15 10 14 18 20 22 24 26 27 24 16 17 26 30 28 25 19 20 20 20 23 24 21 21 20 21 22 26 25 29
16 16 16 16 15 13 18 26 21 17 14 14 11 9 12 11 10 13 18 15 23 22 22 26 13 17 15 15 18 28 20 20 22 27 21 21 25 25 28 22 24 23 19 20 25 16 23 22 17 19 18 24 25 20 17 22 26 22 14 13 16 19 20 22 23 24 25 24 31 25 23 34 33 26 22 21 24 22 25 24 20 18 15 16 20 24 24 25
16 16 15 16 17 20 22 20 18 19 15 11 11 13 12 10 14 19 17 15 27 22 21 16 15 18 16 14 21 21 15 19 20 25 25 21 27 22 31 26 20 22 22 22 27 22 23 22 21 20 21 24 19 17 16 18 23 22 18 14 16 15 17 19 23 26 25 27 28 27 23 32 28 21 25 19 19 24 25 19 18 12 13 16 18 19 24 25
16 15 15 15 21 22 22 20 22 19 16 11 13 13 12 13 18 17 16 14 22 19 20 18 22 20 19 19 20 20 21 19 12 21 23 28 28 24 23 19 26 23 26 24 28 22 17 12 14 18 24 21 19 21 22 20 20 10 10 17 22 23 24 22 24 27 25 30 31 25 27 28 33 19 19 17 14 14 15 19 14 11 12 16 19 22 28 31
16 16 14 13 20 18 18 20 16 16 15 12 13 15 14 18 21 18 12 15 20 26 15 18 22 16 20 20 25 22 21 20 19 21 24 25 28 25 21 21 21 26 28 26 28 31 24 18 20 24 19 20 17 21 22 22 20 21 24 23 21 25 22 22 22 21 27 30 24 26 28 25 31 20 19 19 14 13 12 13 11 10 11 15 15 19 23 21
17 17 16 20 21 22 21 13 16 10 9 10 14 16 19 18 23 19 14 19 21 22 16 20 12 14 13 12 16 26 27 23 20 26 26 31 27 34 33 27 31 30 31 28 30 25 32 27 18 20 20 23 20 21 22 20 21 24 22 22 24 24 21 26 25 28 29 28 22 18 17 23 27 27 13 19 13 13 12 10 10 10 11 10 13 12 15 15
15 16 20 24 20 23 26 26 18 12 12 13 16 19 21 16 17 22 15 19 16 13 19 12 13 12 15 12 20 17 12 22 23 23 22 28 28 29 28 32 25 30 25 26 25 28 27 24 24 21 21 24 21 26 24 24 27 26 28 25 26 26 24 21 24 23 26 27 26 17 14 26 19 15 15 13 13 14 11 10 9 11 9 8 9 9 12 13
16 21 27 17 22 25 22 16 16 14 13 13 17 21 20 14 18 13 14 13 17 11 11 15 11 15 16 29 20 17 23 20 24 28 25 25 29 27 31 32 27 28 29 19 31 28 24 29 32 26 28 26 29 28 21 18 25 30 23 29 25 26 29 22 24 24 25 22 18 18 19 27 26 13 11 14 13 12 13 11 12 12 9 9 8 10 13 14
23 26 25 22 23 25 22 20 14 11 14 17 21 23 18 20 18 14 20 12 15 10 11 12 18 15 20 24 11 16 20 18 18 22 25 25 27 27 28 32 32 26 25 29 26 25 26 27 17 28 19 26 29 27 26 22 21 25 26 24 27 25 18 26 11 17 16 18 20 22 26 15 17 20 12 13 13 12 11 13 10 12 11 9 11 11 12 13
25 20 18 19 19 17 21 20 15 14 16 20 22 21 21 18 14 13 15 16 9 13 13 14 17 20 19 22 20 16 18 15 17 23 25 25 22 27 22 27 37 31 29 30 17 24 23 27 13 21 26 23 25 26 28 24 24 20 27 32 27 18 22 21 19 22 11 19 24 12 22 26 18 23 18 16 15 14 10 12 14 13 10 10 15 14 11 12
17 10 17 16 17 14 17 18 18 17 17 22 21 19 21 12 12 13 12 12 15 15 15 21 26 23 17 23 22 22 21 19 18 25 25 23 28 25 26 23 21 29 30 26 24 17 22 16 18 19 25 23 21 23 25 28 28 19 25 22 19 20 19 20 20 12 20 26 24 23 24 21 25 18 21 14 11 11 14 11 14 11 10 12 14 15 17 16
17 13 11 14 14 14 17 18 17 17 21 21 18 13 13 14 13 13 12 13 13 12 18 19 15 14 14 19 19 19 17 20 18 23 19 18 22 12 18 25 20 23 26 26 27 17 20 23 21 21 22 22 23 19 23 25 28 30 21 11 26 22 22 24 21 23 21 21 23 24 22 23 24 15 19 13 11 10 13 14 12 12 11 11 16 16 17 16
18 15 18 15 16 16 17 17 17 20 21 21 17 16 20 15 16 10 10 12 11 15 17 12 16 14 19 16 20 11 14 24 18 21 22 24 27 16 18 14 17 17 19 24 30 16 15 21 20 21 23 22 22 25 27 26 26 26 22 20 18 22 18 20 27 23 25 21 20 18 22 15 21 16 14 17 15 10 10 13 13 12 12 11 13 16 17 15
18 18 15 14 16 16 16 16 17 21 22 20 17 18 15 13 10 9 11 12 13 17 12 13 13 15 15 17 12 17 13 17 14 11 18 15 21 16 17 14 14 20 16 17 22 16 15 14 22 21 21 19 28 31 28 26 27 31 30 27 25 25 15 21 15 24 24 23 23 19 21 18 14 14 12 16 13 12 10 12 11 12 14 18 17 19 17 13
17 17 19 14 17 17 16 16 21 24 24 16 14 14 14 13 12 12 8 9 16 12 17 13 14 15 12 13 19 17 16 17 20 18 19 14 17 20 14 14 12 13 19 18 22 19 17 21 23 17 24 26 23 22 24 25 24 27 29 29 27 25 26 26 24 30 32 33 25 19 18 16 14 23 16 14 13 12 11 8 11 10 17 21 24 23 22 21
17 19 19 17 15 16 17 18 21 18 19 13 16 13 16 10 14 10 11 13 14 15 14 16 14 17 13 18 20 11 19 18 17 17 12 16 19 12 13 14 15 16 18 23 23 15 18 19 23 23 28 24 17 17 20 15 14 20 25 29 29 26 26 25 24 19 26 31 29 21 15 16 13 14 13 13 13 12 12 10 14 17 19 21 22 19 17 18
20 11 19 17 16 16 15 16 13 15 17 13 11 11 11 13 15 12 17 14 16 14 15 14 13 13 15 16 9 16 13 19 15 13 11 14 13 15 13 10 13 15 16 15 23 13 7 22 22 26 23 27 23 14 12 15 15 21 22 21 21 27 25 23 23 23 23 20 26 20 19 13 11 10 10 12 17 17 21 19 17 18 18 20 21 20 18 18
15 18 18 17 16 16 16 18 16 14 13 9 12 10 11 16 13 15 18 11 20 15 16 18 12 15 15 11 14 18 10 13 12 13 15 15 19 13 12 11 12 13 18 14 13 16 27 25 26 22 26 28 21 23 25 19 23 27 24 23 24 22 19 19 21 20 24 19 23 21 19 14 17 12 15 17 19 18 18 19 19 18 18 19 18 17 16 16
18 19 13 19 17 17 15 15 19 9 11 11 12 12 14 14 10 15 13 11 11 14 9 15 15 11 15 12 16 15 13 14 13 13 13 11 12 12 13 13 16 13 14 13 12 15 23 16 23 28 26 24 28 28 22 23 26 24 20 13 17 22 20 22 21 26 27 19 22 23 13 15 16 12 17 17 16 18 17 18 18 18 17 18 18 18 19 17
20 15 18 18 19 17 16 10 11 10 11 11 5 8 12 13 13 11 14 12 11 10 15 13 12 13 18 13 17 19 19 13 15 12 15 13 15 14 11 12 13 18 15 13 16 16 18 18 22 21 22 17 12 10 17 19 21 25 19 17 19 17 17 17 18 19 25 14 19 19 21 21 14 15 14 17 15 17 16 17 18 17 16 16 18 19 19 18
12 13 18 14 17 15 12 16 13 14 11 11 9 12 13 9 9 15 11 13 13 18 15 13 13 12 11 13 11 15 15 13 14 15 11 14 10 13 13 9 10 17 14 13 18 17 17 20 21 20 16 10 14 11 14 18 17 23 22 14 10 12 12 17 19 22 16 18 22 16 21 13 15 18 17 15 16 16 16 15 16 16 16 17 18 18 15 19
14 13 12 12 15 16 18 13 10 11 13 17 13 12 11 12 11 9 13 14 10 13 13 12 19 12 13 11 11 13 13 13 9 5 12 12 16 16 15 13 12 10 11 19 25 22 17 18 18 21 19 20 16 13 13 12 11 13 11 13 13 13 14 10 13 15 14 16 16 11 21 21 14 16 18 19 17 17 17 18 16 14 15 17 17 18 19 19
16 12 10 10 10 15 17 15 10 11 14 10 15 15 9 9 12 12 10 10 14 9 13 4 13 14 12 12 13 14 10 13 9 10 11 12 11 13 12 12 14 13 14 14 17 21 20 16 15 18 20 16 17 20 16 17 15 10 14 15 15 13 14 15 13 17 16 13 14 19 19 20 14 12 14 15 14 16 16 15 16 16 17 16 17 18 18 18
14 12 16 10 9 14 12 12 12 16 15 9 10 11 10 11 10 11 13 10 4 9 12 10 14 14 12 13 13 14 9 11 12 4 12 14 9 9 7 8 6 14 16 12 11 13 15 13 15 19 20 19 13 15 17 22 21 13 20 21 21 15 12 16 15 18 15 12 11 14 14 14 13 12 12 12 14 15 17 17 17 17 17 17 17 17 17 17
11 12 10 17 14 17 13 15 17 12 15 16 13 12 14 10 9 10 10 9 11 11 10 9 10 12 9 10 14 10 9 8 8 9 10 12 11 12 13 13 13 4 7 12 10 3 11 10 13 14 12 13 15 15 15 14 13 16 19 21 21 20 16 17 15 16 16 16 15 10 9 10 12 12 15 15 16 18 19 18 18 17 17 17 18 18 17 18
12 9 13 15 13 8 14 9 12 13 10 12 14 13 11 10 10 12 5 10 10 9 8 10 9 14 10 10 10 11 13 12 12 12 13 13 12 13 12 13 12 11 9 12 11 11 11 11 13 11 14 13 15 14 16 15 12 13 17 20 17 14 15 11 17 17 17 15 14 8 13 14 12 10 12 15 17 18 19 18 16 17 17 18 18 17 17 18
Wind_Speed
9 9 9 9 9 9 8 9 9 9 9 9 10 10 10 10 11 11 11 11 12 12 13 13 13 14 15 16 16 16 15 14 14 11 10 7 8 5 6 4 4 8 6 9 10 12 11 11 12 9 9 7 7 9 6 8 6 6 7 7 8 7 9 3 6 2 7 2 6 3 3 3 6 3 3 5 7 1 3 3 3 6 4 5 12 16 17 17
9 9 9 9 9 9 9 9 9 9 9 9 10 10 11 11 12 12 12 12 12 12 13 13 14 14 15 16 16 15 14 14 14 13 13 9 10 5 4 2 5 11 9 11 12 13 11 12 11 11 9 8 6 6 7 6 7 8 7 7 8 8 6 7 8 5 4 8 2 3 3 2 4 5 5 10 6 8 6 5 8 6 6 14 14 15 17 18
9 9 8 9 9 9 9 9 9 9 9 9 10 10 11 12 12 12 12 12 12 12 13 13 14 15 16 16 16 12 14 15 13 15 7 11 11 7 5 3 9 11 14 11 12 12 11 10 10 10 9 8 7 6 7 5 8 9 9 8 9 11 4 6 2 6 5 5 5 4 3 5 4 5 4 9 5 5 7 3 7 9 10 13 14 17 17 16
9 9 9 9 9 10 10 9 10 10 9 9 9 10 11 11 12 13 12 12 12 12 12 13 14 15 16 16 15 13 13 13 12 6 12 10 8 9 8 7 10 13 15 12 9 11 9 7 9 11 8 10 7 8 8 7 8 7 10 9 6 10 7 2 3 1 4 5 7 6 5 8 3 4 5 5 10 10 11 11 10 9 10 13 14 15 15 16
9 9 10 10 10 10 10 10 11 11 11 10 10 10 11 12 12 13 13 13 12 12 13 13 14 15 16 16 15 12 10 10 6 11 10 8 10 10 9 8 11 13 13 9 9 11 8 9 10 10 9 8 7 8 9 8 8 6 10 11 12 5 7 1 2 6 5 5 8 6 8 7 6 8 8 6 9 2 5 10 12 8 13 12 14 13 15 15
9 9 10 10 10 11 11 11 11 11 11 11 10 10 11 11 12 13 14 13 13 13 13 13 14 15 17 16 13 11 8 1 5 6 5 6 8 11 10 9 12 12 12 10 10 9 9 10 11 10 9 10 8 9 9 10 9 10 9 11 10 7 9 4 2 3 2 7 7 6 6 6 7 7 7 5 8 5 3 2 2 8 10 12 11 15 14 15
9 10 10 11 11 11 11 12 12 12 11 11 11 11 11 11 12 13 14 13 13 14 13 13 14 16 16 17 15 10 11 12 5 7 10 7 10 13 10 10 11 11 11 10 11 9 12 10 11 10 8 9 8 9 8 10 9 11 10 6 10 10 10 7 8 5 7 8 9 7 7 9 7 12 2 6 5 2 3 5 6 8 16 11 14 13 14 15
9 10 11 11 11 11 11 12 13 12 12 12 12 12 11 12 13 13 13 14 13 13 13 13 14 14 15 12 9 10 12 8 10 9 12 12 12 12 12 11 13 11 11 12 10 11 10 12 11 8 9 8 5 10 5 9 11 12 12 10 5 6 8 8 8 8 8 8 8 9 10 9 8 11 4 9 8 2 3 6 8 9 9 14 12 13 13 13
10 10 11 12 12 12 12 13 13 13 12 12 12 12 12 12 13 13 13 13 14 13 12 13 13 14 11 10 9 11 5 8 7 11 13 13 13 13 15 12 14 11 10 10 9 9 9 10 11 9 6 9 3 9 8 8 10 14 12 10 9 8 7 7 8 8 8 6 7 9 11 9 11 7 11 9 9 2 3 6 9 9 11 12 11 12 12 12
10 10 11 12 12 12 13 13 14 13 14 13 13 13 13 13 14 14 14 14 14 14 12 12 13 13 12 7 10 11 6 3 8 9 10 12 14 14 15 10 14 11 10 9 8 9 11 5 11 6 8 11 1 9 8 11 3 4 8 11 12 10 9 8 9 8 8 9 7 10 10 10 8 5 9 14 3 5 7 8 10 10 12 13 14 12 11 11
10 11 12 12 12 13 13 14 14 14 14 14 14 14 13 14 14 15 15 15 15 14 13 11 11 10 9 8 9 7 2 4 3 6 9 11 14 14 13 11 11 9 8 6 7 8 8 6 5 2 4 8 4 9 10 8 12 7 7 7 10 11 11 10 9 9 8 10 12 12 13 11 9 9 12 9 7 5 7 9 11 11 11 11 12 11 10 10
10 11 12 13 13 13 14 14 14 15 15 15 15 15 14 14 15 17 17 17 17 15 13 11 10 7 8 10 9 5 5 4 3 6 8 11 12 13 10 10 10 7 7 7 7 7 4 5 5 9 2 1 8 4 11 10 10 9 8 10 12 13 13 13 13 11 10 9 6 5 11 11 10 13 16 7 8 8 8 9 9 13 11 10 12 11 10 10
10 11 12 13 13 14 14 14 15 15 16 16 16 15 15 15 17 18 17 16 13 13 12 11 9 6 7 9 10 2 2 4 4 5 8 9 9 6 8 8 8 5 3 4 5 5 3 4 7 10 9 8 5 4 7 7 8 8 10 9 11 11 12 14 12 10 8 7 2 2 10 11 15 17 19 10 8 9 10 9 11 8 7 6 11 10 11 10
10 11 12 13 14 14 14 15 15 15 16 16 16 16 15 16 18 17 15 15 13 10 8 8 8 6 7 9 2 4 3 3 5 8 10 9 10 9 7 7 5 5 2 4 1 0 4 5 7 10 6 9 5 8 11 6 7 9 9 9 9 8 12 15 10 9 11 7 7 8 10 10 13 19 19 10 9 11 11 11 11 12 14 10 8 11 11 12
10 10 11 13 14 15 14 16 15 16 16 16 17 16 16 17 16 15 13 12 10 7 8 8 7 5 7 7 5 6 9 1 8 10 10 12 11 10 10 8 7 6 6 4 4 3 3 5 7 8 8 9 8 6 8 10 8 8 9 9 9 10 2 14 9 8 11 11 10 10 9 11 8 12 14 8 10 12 12 12 11 10 14 18 12 10 11 11
10 10 11 12 13 14 15 15 16 16 16 18 18 17 17 15 14 13 10 8 4 8 8 8 7 8 7 10 4 8 6 10 12 11 10 10 11 10 10 9 7 7 6 6 2 2 4 6 9 8 8 8 10 8 8 8 9 9 9 8 10 9 7 8 12 9 8 2 8 10 9 7 14 11 8 9 11 11 12 13 12 12 11 11 14 14 11 11
10 11 12 12 13 14 15 16 16 16 16 18 19 17 16 13 9 9 7 7 6 8 7 4 5 7 5 6 4 8 7 10 6 13 11 11 10 9 10 9 9 9 8 5 6 5 7 8 7 7 9 7 8 10 9 9 9 9 10 9 11 8 9 6 12 8 7 7 8 11 11 12 3 10 8 8 10 13 13 14 14 12 10 11 9 10 11 10
11 11 12 13 13 14 15 16 16 16 17 17 17 19 15 10 9 9 9 8 6 6 7 6 6 5 13 10 8 8 9 8 9 10 11 10 11 10 8 10 9 9 8 8 7 9 8 8 9 8 7 9 9 10 11 9 10 10 9 9 10 10 6 10 6 12 7 9 9 5 9 10 13 4 10 8 11 13 15 14 16 13 12 11 11 11 8 10
11 11 12 12 13 14 15 16 16 16 17 17 21 20 15 10 8 9 8 6 7 5 7 8 7 7 6 11 4 5 7 8 7 10 10 11 12 11 10 9 9 11 9 9 9 11 8 8 8 9 10 11 12 13 11 13 9 9 10 11 10 11 10 11 9 11 7 7 8 10 9 11 13 14 12 10 10 12 13 14 14 13 11 12 12 11 15 14
11 11 12 13 13 14 15 15 16 17 14 15 11 6 6 5 6 4 9 9 12 11 12 1 11 8 3 6 8 4 9 7 9 10 10 9 11 13 13 10 11 11 10 9 10 11 8 10 10 10 11 12 14 15 15 16 10 6 11 7 10 12 9 9 3 6 2 7 9 9 10 11 12 11 10 10 12 11 13 14 14 13 13 14 13 13 11 11
12 12 12 13 14 15 14 15 14 14 13 13 12 8 5 7 7 1 1 9 14 14 13 10 10 9 7 4 4 7 9 12 11 10 10 10 11 12 12 12 12 11 11 11 8 7 9 10 11 12 12 11 11 12 12 16 5 8 11 9 10 11 9 13 8 6 5 6 8 9 11 11 11 10 12 14 10 12 13 14 15 15 16 12 10 17 13 11
12 12 12 13 14 15 15 15 15 14 16 11 8 8 6 6 6 4 7 7 7 10 12 12 8 11 8 7 2 4 3 9 12 10 10 11 12 13 13 13 13 12 11 12 8 7 9 11 11 12 11 10 7 6 9 9 7 8 10 10 10 10 11 3 5 6 4 6 9 13 12 11 12 11 12 13 15 10 11 13 15 16 16 14 16 20 12 10
12 12 13 13 14 16 15 17 14 14 10 7 8 9 4 5 3 4 5 8 13 14 13 11 10 11 11 8 9 7 11 11 11 14 13 13 14 15 13 12 13 12 11 13 10 9 9 10 15 12 11 7 7 6 6 7 8 8 10 11 11 10 10 12 6 2 5 6 9 6 9 9 10 10 13 13 15 12 14 15 15 14 16 17 16 11 11 10
12 13 13 13 15 15 17 15 17 12 8 9 8 8 5 3 4 5 8 6 6 6 7 6 9 8 10 8 10 12 13 11 11 14 15 13 12 12 11 14 14 13 12 14 14 11 9 7 7 14 10 8 9 9 9 8 9 11 12 12 11 13 16 14 5 6 6 8 9 12 12 12 13 14 14 15 16 15 14 15 15 15 15 16 16 15 18 18
12 12 13 14 14 17 16 18 9 5 2 6 9 5 1 3 4 5 7 6 8 5 6 5 5 6 5 4 5 11 11 11 14 11 15 15 14 11 12 10 10 12 14 13 14 14 14 8 4 4 6 8 10 11 11 10 10 10 13 14 15 13 15 14 9 10 10 11 13 14 11 12 13 17 17 15 15 17 15 14 14 15 15 15 17 16 15 18
12 13 13 13 15 16 19 9 3 2 4 5 5 5 0 3 3 5 6 5 6 9 9 10 7 8 4 9 7 10 8 12 12 12 12 14 13 12 8 10 9 12 15 13 13 9 11 8 10 11 10 10 11 11 11 11 10 10 8 14 17 17 14 14 13 12 10 10 7 8 10 8 9 12 11 13 14 14 12 12 14 14 13 14 13 13 15 15
12 12 12 12 13 16 9 1 8 7 7 4 3 0 2 3 3 5 5 5 7 11 8 9 9 5 5 8 9 8 10 9 10 11 10 14 15 10 12 10 11 10 9 9 7 10 10 9 8 7 10 10 10 11 11 11 10 10 7 2 5 7 11 12 13 13 11 11 7 7 8 11 10 10 9 9 11 9 11 14 12 10 11 12 13 14 15 16
12 12 12 12 12 10 6 10 10 6 3 5 3 1 3 3 2 3 5 4 4 8 7 10 3 5 6 7 9 12 8 10 9 13 11 11 14 12 12 12 11 12 10 8 11 6 12 11 7 9 10 10 10 9 9 13 10 8 4 2 7 10 11 12 11 10 11 10 13 10 12 12 12 11 11 11 12 13 11 13 11 9 7 7 10 12 13 14
12 12 12 12 14 16 10 8 8 8 5 3 3 4 2 3 6 5 3 4 7 3 4 5 2 8 6 6 10 11 6 8 9 13 14 11 15 9 12 14 10 12 13 11 10 7 8 12 11 11 9 10 9 8 8 9 10 12 9 6 7 7 8 9 9 11 11 11 12 12 11 11 11 8 10 9 9 9 12 7 9 5 4 5 7 10 13 14
13 12 12 12 13 10 8 9 10 10 6 3 4 3 5 5 6 6 4 5 6 6 7 6 9 9 10 8 9 11 11 8 2 8 11 11 15 14 10 10 13 11 12 12 14 11 3 4 6 7 10 9 8 10 9 9 11 3 2 7 9 10 10 10 10 10 10 12 14 14 16 13 11 7 8 6 3 0 5 5 4 2 4 4 7 9 10 17
13 12 11 10 7 6 6 7 6 6 6 4 4 6 5 5 6 4 6 3 6 9 4 7 8 5 10 11 10 11 11 10 9 10 10 10 13 13 9 7 8 10 11 12 12 17 12 9 8 8 10 8 9 10 12 13 11 12 8 9 8 10 9 9 8 9 9 10 11 14 15 15 13 6 6 8 2 3 2 6 5 2 4 2 5 7 13 13
14 13 12 9 8 9 8 3 7 1 1 2 5 5 6 5 7 6 3 7 10 9 7 7 4 5 5 5 8 12 10 11 10 11 11 12 12 14 14 11 11 11 13 12 12 12 16 13 8 10 10 14 9 9 8 8 9 10 9 9 10 7 5 8 8 10 10 9 10 10 9 10 11 10 5 11 4 5 2 2 1 1 3 2 6 5 4 5
13 12 16 13 12 10 13 13 8 4 4 5 5 6 7 4 6 9 4 6 2 2 6 3 4 5 6 5 8 8 4 10 12 11 12 13 12 14 16 15 13 12 8 11 11 11 11 13 13 11 11 12 11 10 9 10 11 12 11 10 10 8 8 8 8 7 9 11 15 5 6 10 7 3 2 5 4 4 3 3 1 1 0 1 2 2 2 4
13 16 12 8 9 11 9 8 6 6 5 5 6 7 7 5 5 5 6 3 6 3 3 6 3 7 7 10 11 9 9 11 13 11 13 11 13 12 13 19 16 15 13 8 11 12 10 12 14 13 10 14 13 12 9 7 10 12 11 12 10 9 7 8 7 8 10 8 7 8 7 6 10 2 3 6 6 5 5 3 4 3 1 3 1 1 3 3
19 18 13 11 10 11 12 9 6 4 5 6 7 8 7 7 7 4 8 3 5 1 3 5 8 6 9 11 3 6 9 5 9 11 11 11 11 11 12 14 19 14 12 11 10 7 15 10 8 16 10 14 15 14 14 11 9 10 10 10 11 8 6 9 2 6 4 6 8 9 8 5 3 6 4 2 4 5 3 4 3 4 3 2 2 3 5 1
18 7 7 7 8 8 10 8 7 6 6 7 7 7 8 6 3 3 3 5 1 4 3 5 7 8 7 9 10 8 10 5 8 10 10 12 11 11 12 11 15 18 12 10 5 8 9 9 5 11 16 13 14 14 13 12 8 7 11 12 11 8 9 7 8 12 6 6 8 3 7 9 4 10 8 8 7 6 3 5 4 4 3 4 7 4 4 3
6 3 6 7 7 6 7 8 7 7 6 7 7 7 8 3 2 5 4 4 7 6 6 8 9 9 7 8 9 12 9 9 7 9 9 11 11 13 13 11 12 16 18 11 9 6 8 5 9 10 14 11 10 13 14 14 12 6 9 8 8 9 9 6 6 2 6 9 7 10 11 9 10 2 8 5 4 3 6 4 6 4 3 5 5 7 9 8
7 4 3 5 5 6 7 8 8 6 7 8 6 11 4 4 4 5 4 5 5 4 7 7 3 5 4 7 7 8 9 8 8 9 8 7 4 4 9 10 11 12 16 15 10 6 7 8 8 11 11 12 13 10 12 15 16 13 7 2 9 7 9 7 4 9 8 7 6 9 11 9 6 3 8 5 0 2 5 6 5 3 4 5 8 7 10 9
7 4 5 6 6 7 7 8 7 8 8 7 5 6 7 5 7 3 3 4 3 6 6 4 6 5 7 5 9 2 2 7 8 9 8 8 9 4 8 4 6 8 10 14 12 5 5 7 7 10 12 9 10 9 10 10 14 16 11 8 6 8 6 7 7 9 8 8 8 7 11 2 8 2 4 5 6 1 4 5 3 4 5 3 6 7 9 8
7 5 4 6 7 7 7 7 6 8 8 7 6 5 4 4 2 1 2 4 3 6 3 5 5 5 5 7 3 6 4 8 4 3 7 5 5 5 7 4 5 10 8 9 10 7 4 4 7 8 11 8 10 10 12 11 11 12 12 10 8 8 4 7 4 7 7 7 8 5 7 5 4 6 5 7 5 4 3 5 3 4 8 10 8 9 9 7
6 5 6 6 8 7 7 6 7 9 9 5 5 4 5 3 4 4 1 1 6 4 6 4 4 5 3 4 6 8 5 7 8 6 7 5 5 6 3 4 4 5 9 9 11 6 4 7 8 5 7 10 9 10 13 14 12 11 11 12 11 10 11 9 7 6 9 7 6 4 3 3 4 5 1 5 5 5 5 2 4 4 10 10 13 13 12 11
5 6 5 8 8 8 6 6 6 6 5 4 2 3 3 3 5 1 2 5 6 4 6 6 6 7 4 7 9 1 5 7 7 7 3 2 10 2 4 7 7 8 5 7 9 6 6 5 9 8 8 11 5 9 11 7 6 10 11 12 13 11 9 9 8 6 10 11 13 10 3 4 4 3 4 5 5 4 5 4 6 7 10 12 12 11 10 11
7 1 9 9 8 8 5 5 5 4 6 2 1 3 3 4 6 3 6 6 6 4 5 4 5 5 6 6 2 6 4 6 6 4 4 4 2 6 4 4 5 7 7 4 5 1 3 4 8 9 10 8 10 6 4 6 7 9 9 9 8 11 12 10 5 6 9 4 5 5 6 3 4 3 4 6 10 9 11 11 8 8 9 11 12 11 11 10
4 3 5 7 7 7 6 5 5 5 4 1 4 2 2 5 4 5 7 3 5 5 6 7 4 6 6 3 5 8 2 4 3 5 5 6 6 3 4 3 3 2 7 4 1 5 2 8 9 5 8 7 9 6 9 8 8 10 9 9 12 11 9 6 3 2 9 6 4 3 6 0 4 4 7 9 10 10 10 10 11 9 10 10 9 9 8 9
6 5 4 6 7 6 5 5 7 2 4 4 5 5 5 5 2 7 5 2 1 5 1 5 6 2 5 4 6 6 5 6 3 5 5 5 4 5 4 6 7 5 3 4 2 3 8 3 4 9 10 10 10 8 6 5 8 8 10 1 8 9 10 9 7 9 11 7 9 8 2 4 2 4 9 9 9 10 10 11 10 10 9 9 9 9 10 8
6 3 5 6 6 6 5 2 3 2 2 3 1 1 4 4 4 4 6 3 4 1 5 4 3 4 9 6 7 9 9 5 6 3 5 4 5 1 4 4 5 7 9 7 6 6 5 7 9 9 5 3 1 1 7 9 9 8 5 7 4 9 9 7 7 6 8 4 7 5 8 5 2 4 6 9 8 9 9 10 10 9 9 9 10 9 8 8
2 4 5 4 5 5 3 5 4 5 2 3 2 4 6 3 2 6 4 4 5 8 5 5 5 4 4 6 4 7 7 5 6 7 3 7 2 5 4 1 3 9 11 5 12 3 6 6 8 11 8 2 6 2 1 4 6 9 12 6 4 1 1 3 7 5 7 3 6 8 12 6 4 10 10 8 9 9 9 8 9 9 8 9 9 9 9 9
3 3 4 2 4 4 6 5 3 4 5 6 2 2 3 5 4 3 5 6 3 5 5 4 9 4 5 4 3 4 6 6 2 1 5 4 7 8 1 6 4 3 4 7 10 8 5 4 8 11 11 11 6 3 5 3 2 3 2 4 3 4 5 1 1 5 6 3 4 3 12 12 5 5 8 9 9 10 9 10 9 8 8 9 9 10 10 10
5 2 2 3 2 5 6 5 2 4 6 3 4 6 3 3 5 5 3 3 6 3 5 1 6 6 4 3 5 5 3 4 3 2 2 3 2 4 1 4 4 5 2 4 6 5 3 4 7 7 9 9 8 9 6 1 7 1 1 5 5 4 6 7 5 8 5 4 6 7 11 11 7 5 6 7 7 8 9 8 8 9 10 9 9 10 10 10
4 2 5 2 1 4 4 4 4 6 5 1 2 4 3 4 4 3 4 3 1 3 4 4 6 7 4 5 4 5 2 2 4 0 3 5 1 1 2 2 1 5 6 4 1 4 2 1 7 7 5 10 4 5 8 8 12 6 8 11 12 8 5 8 8 10 8 4 5 8 7 7 6 6 6 6 7 7 8 10 10 10 10 9 10 10 10 10
4 3 2 4 4 6 4 6 7 4 4 6 4 4 6 3 3 2 3 2 4 4 3 3 4 5 2 4 6 4 1 1 1 1 2 3 3 4 3 4 5 1 3 4 2 0 4 2 2 2 4 2 3 5 6 7 4 9 10 13 12 11 7 9 6 8 9 7 7 2 3 3 5 6 8 9 9 10 11 11 10 9 10 10 10 10 10 10
4 2 5 5 2 2 4 1 4 3 3 3 5 6 3 3 2 4 1 3 3 2 1 3 2 5 3 4 2 2 5 4 4 5 4 4 4 4 2 3 3 3 2 4 3 3 2 2 3 3 4 3 4 6 5 5 4 4 8 11 9 8 8 4 9 10 9 8 6 3 5 4 5 4 6 8 9 11 11 9 8 10 10 10 11 10 10 10
Wind_Direction
338 332 330 330 329 325 327 324 322 320 320 321 320 317 317 314 311 307 307 306 306 307 309 312 309 306 303 305 310 312 312 296 298 285 246 248 96 130 80 91 181 149 221 207 202 178 189 197 203 184 211 199 206 232 170 216 247 221 229 239 241 258 232 335 199 97 33 81 68 2 34 336 281 26 34 225 188 57 142 189 112 59 69 132 139 135 145 152
333 330 330 330 326 325 321 320 318 318 317 318 316 315 315 313 311 311 309 309 309 308 309 309 305 307 307 306 310 314 308 293 286 272 251 106 116 149 145 61 177 175 206 212 189 189 188 190 198 184 209 213 170 223 156 204 223 223 228 236 251 219 55 319 25 10 303 28 341 342 288 331 335 278 44 285 164 154 179 157 157 115 103 101 119 131 145 158
330 330 329 325 322 320 320 317 315 313 312 315 313 313 310 309 307 307 305 307 306 308 307 307 310 306 307 308 308 310 292 294 275 252 181 119 124 173 176 175 183 181 201 196 192 196 204 183 188 201 203 220 181 187 197 183 206 228 251 232 233 270 57 16 310 24 295 356 293 315 323 283 327 262 30 278 285 163 189 124 151 167 144 136 144 150 154 164
332 329 327 324 323 320 317 316 314 312 311 311 312 310 308 307 306 305 305 304 307 305 309 307 308 311 306 306 312 309 292 285 270 146 103 119 152 167 188 173 190 197 217 244 196 213 212 200 192 213 204 242 169 232 191 182 220 189 238 245 242 41 318 90 357 32 345 293 309 282 325 265 255 315 273 330 259 218 128 164 237 157 163 141 144 151 157 168
333 330 323 323 322 319 316 316 313 312 312 312 311 309 310 307 306 304 305 302 303 306 307 310 309 308 308 307 307 292 291 281 103 97 100 144 175 178 174 185 185 201 214 235 227 223 219 217 192 215 235 224 198 209 231 201 227 261 237 248 279 326 264 170 274 39 295 317 272 280 257 281 355 248 247 269 280 345 166 181 193 157 165 147 157 165 165 172
330 327 324 319 320 320 316 313 312 310 309 309 310 310 307 308 305 305 303 304 302 305 307 307 307 306 308 308 301 280 267 299 104 103 103 143 173 169 170 179 191 219 206 235 224 208 210 213 203 207 216 244 189 223 195 237 188 244 233 255 264 273 272 39 221 239 306 279 282 281 281 320 263 285 268 272 267 31 169 101 146 172 133 162 179 164 173 180
328 327 323 320 318 318 317 312 312 313 311 311 312 311 310 306 306 302 301 302 303 300 303 303 304 308 312 303 272 252 243 274 144 108 116 134 133 153 157 172 187 221 219 222 209 197 208 204 209 206 221 237 221 224 222 215 210 245 260 230 231 234 241 262 279 276 259 258 264 277 303 266 271 254 93 247 247 272 76 156 190 156 153 175 167 186 176 177
329 325 321 319 318 317 316 315 313 313 313 313 312 314 310 306 303 301 300 298 298 296 297 299 302 307 321 310 282 225 233 243 100 103 116 127 146 146 163 171 182 201 217 211 195 205 200 209 206 210 237 235 187 212 189 221 221 233 242 257 269 261 258 259 257 259 259 265 269 264 260 258 250 262 311 246 256 116 153 192 173 152 159 151 187 186 181 175
328 325 322 318 317 316 317 315 314 312 313 312 313 312 311 307 303 302 298 296 293 293 292 297 301 306 306 280 280 286 235 75 84 114 139 149 147 158 169 165 190 201 206 207 205 210 207 204 222 230 235 226 195 228 190 233 221 225 249 253 252 251 259 256 251 246 253 263 253 255 251 251 250 259 252 245 228 149 129 205 172 159 162 162 172 181 180 177
328 325 320 318 316 316 316 315 314 314 313 313 312 311 308 306 303 298 296 292 290 289 291 293 298 304 293 268 270 260 89 157 103 126 153 150 151 162 184 171 186 203 201 203 195 221 217 183 228 200 269 278 337 231 214 217 330 29 247 242 254 255 251 242 257 261 259 254 255 254 256 247 232 227 230 219 186 199 183 201 180 173 168 164 180 184 178 181
329 325 320 317 316 315 314 315 315 315 314 315 313 310 308 305 301 300 297 293 289 284 288 290 293 297 278 267 271 271 92 224 110 121 156 161 161 170 187 174 189 200 215 177 219 225 219 293 252 278 251 257 192 236 226 224 264 252 269 278 260 260 258 259 246 246 249 241 231 243 250 246 244 237 251 171 161 180 213 199 181 184 166 180 168 169 176 186
328 323 320 317 316 316 315 314 315 315 315 313 313 309 308 306 305 301 298 291 283 279 275 278 280 273 275 268 248 285 151 116 184 144 155 172 177 180 174 181 195 204 210 181 215 205 261 245 254 237 257 60 230 238 216 239 239 258 256 255 248 241 244 231 237 229 220 246 226 252 262 241 224 230 231 227 180 180 221 210 176 194 163 179 160 168 183 186
327 325 321 317 314 314 314 313 313 316 315 312 312 311 308 308 305 302 296 289 276 266 257 255 258 251 278 267 239 193 232 128 160 166 161 181 173 181 169 182 206 221 248 262 198 193 252 249 255 246 249 263 280 212 27 224 226 255 247 257 262 246 239 222 219 221 233 251 217 203 245 231 213 219 226 192 189 187 207 211 203 141 144 196 165 181 182 182
328 324 321 317 315 313 313 312 313 313 313 312 310 310 308 310 307 300 292 280 276 260 258 244 257 250 253 263 14 133 153 174 151 184 180 178 177 166 186 173 209 212 161 272 1 44 224 230 255 261 291 250 246 91 233 223 236 241 237 231 249 254 247 195 190 181 235 157 186 219 257 260 225 198 210 156 208 190 209 222 203 174 153 192 188 190 191 181
324 323 319 317 316 313 312 312 312 312 313 311 309 307 311 305 304 298 294 277 234 237 222 248 230 241 219 245 132 85 23 222 196 195 187 181 187 166 188 172 192 209 190 219 199 208 223 228 232 233 227 232 273 255 225 236 206 228 243 217 222 243 133 138 172 171 241 135 216 209 244 257 275 177 145 157 195 204 212 218 205 210 169 173 187 201 196 184
322 322 319 318 316 314 310 311 311 312 313 313 306 306 304 301 291 295 286 318 132 194 209 213 204 236 299 267 115 121 192 202 211 202 188 203 195 192 177 178 180 191 194 198 265 185 223 211 222 216 226 181 237 236 237 225 216 211 235 246 230 203 189 175 171 200 243 95 169 228 256 208 243 125 146 179 213 204 216 220 211 208 200 174 185 181 194 186
323 321 320 318 316 313 311 309 312 313 313 309 307 297 297 299 275 276 274 225 169 198 208 240 176 190 257 77 144 197 184 201 171 187 191 207 208 218 172 175 187 179 201 173 214 216 183 220 207 244 255 239 208 233 241 226 225 212 204 241 260 210 212 240 129 190 179 227 215 201 247 262 49 109 166 186 218 205 218 218 225 206 199 199 180 193 178 202
321 324 321 317 314 313 309 310 312 313 315 308 306 296 289 280 271 269 245 234 202 200 220 261 269 242 234 235 216 227 156 141 185 164 186 192 213 207 202 185 180 185 191 193 189 226 171 215 194 231 198 227 220 219 231 224 217 227 202 220 233 245 274 274 187 144 203 174 263 214 236 255 265 216 166 200 217 217 212 218 226 211 206 210 195 186 182 215
322 323 320 316 313 312 311 311 312 316 315 310 290 271 270 254 245 238 249 185 194 175 210 183 192 194 11 155 233 91 169 134 132 167 164 187 195 205 198 203 184 184 197 210 167 218 166 227 199 230 220 204 217 224 223 244 267 280 257 220 239 229 210 224 223 134 223 208 218 233 243 237 233 245 252 181 204 218 220 215 229 225 215 225 217 203 191 196
322 322 320 316 314 312 312 311 313 314 323 311 308 259 210 217 187 201 206 220 231 250 306 117 202 275 147 193 169 146 86 176 174 202 162 177 181 187 197 198 191 206 209 216 155 213 170 220 206 214 223 216 216 229 239 244 281 302 305 292 245 269 246 239 266 94 156 264 251 264 257 262 272 273 258 227 183 215 225 222 218 223 210 225 223 216 206 190
320 321 319 317 314 314 311 313 313 314 316 301 286 272 278 349 306 116 335 238 229 243 260 265 242 247 262 4 124 185 192 183 234 173 181 160 191 178 186 195 196 202 214 221 174 187 209 227 226 224 229 236 225 219 242 260 326 259 264 261 252 240 252 262 222 156 224 247 257 244 254 253 256 250 247 264 210 204 219 226 226 222 227 209 236 254 210 187
322 320 320 317 316 314 313 310 312 312 302 279 264 269 305 34 1 358 298 291 235 224 232 244 247 252 258 224 234 328 278 220 195 192 156 183 173 201 161 205 195 209 197 219 184 181 212 230 233 234 233 237 254 259 229 248 242 247 250 258 261 253 258 156 151 153 215 233 257 255 250 244 235 234 247 246 255 202 218 231 225 225 232 233 216 219 216 176
322 320 319 321 317 315 312 310 308 308 294 251 242 248 324 23 350 345 298 282 273 254 249 232 221 236 231 214 218 192 232 227 196 186 166 204 173 225 168 202 199 219 199 207 206 198 222 225 236 237 231 222 220 236 238 230 247 250 238 239 247 261 240 233 180 159 226 249 280 291 278 273 271 261 261 256 251 225 209 224 232 225 228 232 234 230 135 219
320 323 322 321 321 315 313 313 305 280 233 246 269 278 15 314 340 324 290 264 301 190 208 197 234 217 213 217 186 200 219 219 237 192 168 197 204 205 220 199 213 214 218 199 216 225 232 255 180 212 220 193 216 213 225 229 233 222 243 251 250 240 248 268 245 213 217 236 249 264 264 259 249 246 243 237 236 247 213 215 225 228 231 226 231 238 175 200
321 323 324 323 320 318 312 318 285 217 223 240 248 258 356 323 325 339 303 265 226 212 135 145 227 198 97 57 136 209 206 238 222 230 171 199 203 194 221 197 230 214 227 193 214 236 249 251 93 286 194 202 222 225 217 231 239 231 220 239 251 264 277 252 240 260 243 244 227 229 264 253 244 239 237 237 219 215 225 220 220 226 226 229 226 228 226 178
320 321 326 322 322 319 310 291 135 350 259 265 24 110 336 342 355 318 280 269 234 148 167 179 193 132 151 185 167 217 209 224 208 224 181 198 218 219 190 225 205 220 215 206 211 235 241 187 174 215 225 224 226 231 212 211 242 245 220 217 229 244 256 274 269 255 258 259 290 245 244 273 269 259 240 235 237 218 205 228 235 226 228 231 235 236 230 203
319 320 322 325 319 326 299 59 352 287 260 182 128 193 347 329 17 269 262 214 254 145 175 109 195 103 242 149 189 186 215 189 173 206 198 179 218 198 239 211 184 251 226 208 216 220 226 229 163 206 223 227 219 224 216 208 227 234 253 222 281 248 247 249 252 253 263 276 242 187 251 275 269 253 242 223 241 218 212 220 225 240 236 237 241 236 232 234
318 320 321 321 316 310 305 313 302 263 1 51 349 42 300 3 315 255 254 244 201 143 160 164 31 130 244 149 207 211 45 104 173 188 205 168 224 183 233 228 205 209 215 221 226 189 192 226 207 210 218 221 226 225 213 203 227 239 189 315 246 251 251 255 248 248 253 256 259 234 220 248 255 267 267 236 219 208 223 218 193 219 245 257 261 263 260 250
316 318 321 316 313 288 277 263 289 273 23 347 10 287 355 327 265 263 258 257 103 174 21 156 145 203 196 179 200 228 233 203 281 140 185 193 211 227 204 241 239 217 208 218 233 151 172 221 203 228 213 220 230 212 221 195 225 241 264 206 255 269 278 260 256 250 248 248 252 254 246 252 257 262 259 250 241 203 229 191 158 195 234 283 309 304 292 268
314 316 317 320 303 253 219 225 244 267 306 327 305 315 291 256 233 226 190 255 133 174 190 92 202 179 186 195 183 193 222 192 214 139 187 196 190 229 254 235 233 230 218 196 242 257 349 106 320 219 218 231 219 218 222 195 223 275 322 261 222 233 237 234 248 263 259 243 241 245 252 254 266 250 265 278 328 94 94 85 265 174 261 268 246 266 267 254
310 312 312 309 281 331 324 250 227 227 235 280 308 289 267 233 237 239 201 73 194 93 183 169 163 174 203 218 198 172 210 195 173 173 170 190 195 204 218 218 253 240 229 209 208 236 168 182 205 212 242 240 241 231 208 225 215 221 224 227 242 225 226 236 232 232 247 249 250 242 246 241 252 233 261 59 239 123 240 158 185 217 228 197 257 233 240 254
310 304 298 286 282 301 262 65 43 5 73 333 296 254 219 222 215 236 204 114 256 138 215 155 156 212 224 221 286 163 193 192 182 186 191 188 190 192 204 221 182 212 215 205 216 217 231 210 208 211 200 240 194 241 197 213 219 226 221 232 235 227 209 227 219 225 226 245 247 261 246 241 234 251 239 138 189 97 57 321 113 293 317 291 241 237 237 247
297 294 290 274 265 247 249 267 294 317 301 283 270 230 223 233 221 218 207 169 122 12 124 296 119 208 239 230 214 202 185 208 170 202 200 186 208 195 207 224 189 220 219 200 218 206 224 235 209 210 190 205 226 212 198 196 205 214 217 216 222 224 218 236 240 234 237 229 245 232 258 259 288 215 342 107 100 79 86 82 66 30 153 264 266 272 163 134
297 293 280 255 239 237 247 253 253 267 270 251 234 210 246 251 235 27 312 163 87 128 107 212 215 229 243 231 203 184 182 224 170 196 198 186 206 199 202 215 221 200 246 206 225 219 220 209 208 201 203 176 215 231 220 217 195 212 221 220 226 234 223 227 238 246 241 256 221 203 223 250 242 92 93 86 97 97 102 104 89 92 68 80 344 67 94 151
293 285 261 252 237 241 236 235 240 235 245 227 214 221 204 227 251 185 219 142 119 200 212 122 238 237 212 238 352 200 298 191 191 199 203 202 194 216 200 203 211 231 202 242 197 236 236 237 210 199 227 177 211 216 244 246 223 203 216 228 235 231 234 265 283 304 358 291 236 191 239 234 257 114 75 146 124 111 122 106 175 104 97 100 113 62 46 42
291 253 203 220 216 215 211 209 215 211 228 219 221 211 218 227 240 199 45 5 50 305 323 240 248 233 227 216 178 235 158 263 200 234 207 220 198 209 201 201 204 207 227 222 209 222 226 240 198 182 217 216 208 211 219 239 238 181 207 215 226 228 237 230 252 259 221 250 264 281 209 235 80 190 171 186 145 129 155 131 111 91 95 81 84 94 101 41
275 242 214 196 201 184 177 191 187 202 227 235 226 215 234 195 21 18 59 331 16 318 264 259 185 222 216 203 187 193 178 204 211 233 215 208 218 210 201 204 206 195 226 239 219 225 260 253 198 195 200 212 238 213 219 211 245 244 223 219 225 234 255 259 270 226 225 244 247 242 247 228 211 216 6 348 200 122 88 86 84 123 123 98 102 95 90 82
295 248 213 143 111 141 168 175 184 204 225 229 232 261 25 269 138 301 43 292 241 204 279 254 87 277 250 255 186 189 164 225 171 214 240 206 248 238 230 219 198 220 208 220 261 175 235 240 205 196 223 202 210 233 226 219 211 238 234 202 237 188 217 214 229 230 247 241 251 244 260 252 275 122 173 194 258 118 121 111 132 104 100 85 97 94 96 101
271 243 165 122 136 148 157 166 199 201 211 223 228 222 230 266 54 294 24 343 309 317 261 254 310 175 289 226 270 161 229 248 191 200 223 190 225 52 293 289 193 239 233 217 218 228 201 250 204 198 227 183 194 200 221 209 199 230 246 238 244 282 247 227 206 246 247 248 240 239 236 242 35 82 115 182 102 90 96 126 122 98 92 139 87 77 75 68
236 193 153 137 132 151 144 178 207 208 225 223 208 230 87 226 163 137 249 259 230 238 272 322 202 288 214 277 327 258 183 254 270 190 244 175 210 350 276 209 262 204 236 232 257 192 222 222 253 173 198 178 205 194 222 208 200 199 219 231 211 227 256 248 255 249 255 265 253 245 238 83 33 27 54 98 113 117 109 96 93 96 67 62 66 62 56 67
210 247 114 155 153 140 161 201 211 206 214 213 304 38 153 246 150 171 249 260 288 279 310 280 304 229 284 304 238 235 252 244 245 222 206 247 183 194 52 335 304 248 202 226 224 217 237 205 232 237 230 203 221 202 227 218 211 207 213 220 224 217 216 224 225 197 241 264 272 267 292 8 84 26 167 98 99 95 81 88 105 77 76 70 58 53 51 48
229 214 157 167 152 166 198 194 209 230 252 230 197 220 93 39 275 314 213 183 253 264 178 282 264 286 288 245 301 230 274 278 254 247 220 41 336 1 225 272 267 291 273 220 220 205 245 242 242 219 218 234 295 270 215 253 257 244 216 217 218 233 240 238 257 221 217 223 260 254 196 190 100 53 41 81 69 67 93 111 101 101 79 67 61 63 64 55
191 213 108 159 176 201 220 238 204 196 207 101 90 223 110 194 276 135 249 177 228 210 261 230 258 256 229 274 275 266 284 272 273 276 285 156 102 7 27 268 296 255 245 0 299 101 266 243 231 232 222 240 248 287 341 253 254 242 239 264 240 226 228 246 236 276 283 291 308 299 248 150 144 114 91 76 66 54 56 56 77 75 77 67 59 51 48 45
182 115 156 172 189 220 251 226 181 207 152 146 257 211 113 312 217 193 241 150 260 177 217 226 239 238 278 171 262 262 321 285 237 235 235 187 153 342 10 347 236 22 2 99 130 314 263 214 233 227 244 225 213 269 246 233 233 238 242 224 241 251 243 234 213 278 267 255 188 194 282 199 98 152 119 93 78 69 65 58 47 53 55 58 58 56 49 46
158 180 156 168 186 226 228 286 298 160 160 185 200 205 168 211 187 330 300 168 171 263 249 253 253 27 254 237 261 267 253 266 278 270 351 315 86 129 42 37 31 80 40 54 351 323 285 318 254 234 230 221 215 217 225 230 232 233 232 24 355 281 265 250 222 221 248 247 255 263 258 82 107 137 113 96 86 77 61 58 59 55 51 48 47 48 50 44
188 147 151 158 202 205 254 271 292 293 160 166 303 250 258 200 145 221 269 215 287 310 277 308 231 224 251 243 246 232 229 191 239 264 233 212 104 210 76 44 35 34 21 5 329 223 239 239 250 274 285 291 36 266 214 227 298 269 238 122 245 268 282 284 285 260 250 266 240 103 65 292 113 112 93 82 73 67 57 49 51 50 48 52 55 55 54 55
261 218 146 170 174 211 222 212 170 250 204 203 195 183 206 194 183 154 202 276 176 261 178 241 292 201 253 271 280 283 269 239 219 234 230 273 258 97 112 48 48 34 327 341 15 310 265 261 262 254 261 194 164 116 81 338 342 328 305 241 199 204 267 250 253 276 339 351 233 48 103 116 28 26 22 45 64 65 53 47 46 46 48 51 50 49 45 43
231 130 173 149 260 157 195 181 212 133 68 213 99 314 207 190 197 185 190 246 108 218 259 175 227 180 233 243 250 250 263 262 281 280 281 248 277 83 303 92 67 16 312 74 56 50 14 298 261 256 245 226 220 251 64 338 124 196 320 317 0 37 25 57 346 26 327 277 303 142 136 129 124 44 32 33 37 53 53 52 44 43 46 51 51 46 39 34
261 136 133 110 257 68 34 73 283 135 179 212 130 239 200 194 181 197 227 186 219 180 237 172 276 266 236 283 270 256 235 254 195 83 5 345 321 329 254 77 71 73 87 87 45 29 16 241 305 307 291 263 234 233 225 179 297 222 355 19 18 24 54 23 21 19 355 55 82 89 81 80 52 59 43 45 49 56 57 53 50 45 40 46 52 50 43 36
188 165 154 159 209 117 123 141 159 190 143 234 210 177 161 199 186 179 192 198 286 238 257 272 247 231 263 279 275 255 38 357 351 149 34 325 249 320 72 334 350 16 39 65 58 63 294 357 32 349 300 238 213 231 227 184 231 93 40 31 23 358 48 38 26 18 353 80 106 121 98 67 51 42 56 55 56 64 63 54 49 44 39 41 47 49 43 37
307 337 283 183 151 106 134 164 192 186 128 201 212 152 219 183 143 266 172 245 184 223 265 252 266 309 12 310 264 235 38 18 304 2 289 338 299 16 317 183 222 146 125 115 122 121 212 265 24 329 281 283 193 205 216 231 163 84 46 29 22 25 30 22 42 26 24 9 344 138 92 91 89 67 49 37 44 49 51 52 48 40 35 39 42 44 39 35
270 258 280 269 144 191 205 19 16 228 174 60 11 149 232 150 68 205 81 287 284 290 301 287 1 296 209 242 6 15 358 312 330 337 321 294 262 283 262 277 265 271 264 124 172 192 217 215 213 215 236 257 219 198 163 208 187 195 39 10 8 30 19 33 64 36 28 360 30 50 69 63 99 102 78 53 42 45 45 39 44 48 47 43 43 42 42 40